Time,TemperatureF,DewpointF,PressureIn,WindDirection,WindDirectionDegrees,WindSpeedMPH,WindSpeedGustMPH,Humidity,HourlyPrecipIn,Conditions,Clouds,dailyrainin,SoftwareType,DateUTC
2013-06-06 00:02:00,57.4,57.0,30.01,East,90,0.0,0.0,97,0.00,,,0.04,weatherlink.com 1.10,2013-06-06 05:02:00,
2013-06-06 00:17:00,57.4,57.0,30.01,East,90,0.0,0.0,97,0.00,,,0.04,weatherlink.com 1.10,2013-06-06 05:17:00,
2013-06-06 00:32:00,57.4,57.0,30.00,East,90,0.0,0.0,97,0.00,,,0.04,weatherlink.com 1.10,2013-06-06 05:32:00,
2013-06-06 00:47:00,57.5,57.0,30.00,East,90,0.0,0.0,97,0.00,,,0.04,weatherlink.com 1.10,2013-06-06 05:47:00,
2013-06-06 01:02:00,57.5,56.0,30.00,East,90,0.0,0.0,96,0.00,,,0.04,weatherlink.com 1.10,2013-06-06 06:02:00,
2013-06-06 01:17:00,57.5,56.0,30.00,East,90,0.0,0.0,96,0.00,,,0.04,weatherlink.com 1.10,2013-06-06 06:17:00,
2013-06-06 01:32:00,57.5,56.0,30.00,East,90,0.0,2.0,96,0.00,,,0.04,weatherlink.com 1.10,2013-06-06 06:32:00,
2013-06-06 01:47:00,57.5,56.0,29.99,East,90,0.0,4.0,96,0.00,,,0.04,weatherlink.com 1.10,2013-06-06 06:47:00,
2013-06-06 02:02:00,57.5,56.0,29.99,East,90,5.0,5.0,96,0.00,,,0.04,weatherlink.com 1.10,2013-06-06 07:02:00,
2013-06-06 02:17:00,57.1,56.0,29.99,East,90,4.0,9.0,96,0.00,,,0.04,weatherlink.com 1.10,2013-06-06 07:17:00,
2013-06-06 02:32:00,56.3,55.0,29.99,East,90,5.0,9.0,96,0.00,,,0.04,weatherlink.com 1.10,2013-06-06 07:32:00,
2013-06-06 02:47:00,56.3,55.0,29.99,East,90,0.0,4.0,96,0.00,,,0.04,weatherlink.com 1.10,2013-06-06 07:47:00,
2013-06-06 03:02:00,56.1,55.0,29.98,East,90,2.0,5.0,96,0.00,,,0.04,weatherlink.com 1.10,2013-06-06 08:02:00,
2013-06-06 03:17:00,55.6,55.0,29.98,East,90,5.0,8.0,96,0.00,,,0.04,weatherlink.com 1.10,2013-06-06 08:17:00,
2013-06-06 03:32:00,55.4,55.0,29.98,East,90,2.0,8.0,99,0.00,,,0.04,weatherlink.com 1.10,2013-06-06 08:32:00,
2013-06-06 03:47:00,55.3,54.0,29.98,East,90,0.0,9.0,96,0.00,,,0.04,weatherlink.com 1.10,2013-06-06 08:47:00,
2013-06-06 04:02:00,55.1,54.0,29.98,East,90,0.0,8.0,96,0.00,,,0.04,weatherlink.com 1.10,2013-06-06 09:02:00,
2013-06-06 04:17:00,55.2,54.0,29.98,NE,53,4.0,9.0,96,0.00,,,0.04,weatherlink.com 1.10,2013-06-06 09:17:00,
2013-06-06 04:32:00,55.2,54.0,29.98,NE,53,2.0,8.0,96,0.00,,,0.04,weatherlink.com 1.10,2013-06-06 09:32:00,
2013-06-06 04:47:00,55.1,54.0,29.98,NE,53,5.0,8.0,97,0.00,,,0.04,weatherlink.com 1.10,2013-06-06 09:47:00,
2013-06-06 05:02:00,55.0,54.0,29.98,NE,53,5.0,6.0,97,0.00,,,0.04,weatherlink.com 1.10,2013-06-06 10:02:00,
2013-06-06 05:17:00,55.0,54.0,29.99,NE,53,0.0,6.0,97,0.00,,,0.04,weatherlink.com 1.10,2013-06-06 10:17:00,
2013-06-06 05:33:00,54.8,54.0,29.99,NE,53,4.0,5.0,97,0.00,,,0.04,weatherlink.com 1.10,2013-06-06 10:33:00,
2013-06-06 05:47:00,54.8,54.0,29.99,NE,53,1.0,5.0,97,0.00,,,0.04,weatherlink.com 1.10,2013-06-06 10:47:00,
2013-06-06 06:02:00,54.7,54.0,29.99,NE,53,0.0,6.0,97,0.00,,,0.00,weatherlink.com 1.10,2013-06-06 11:02:00,
2013-06-06 06:17:00,54.4,54.0,29.99,NE,53,8.0,9.0,97,0.00,,,0.00,weatherlink.com 1.10,2013-06-06 11:17:00,
2013-06-06 06:32:00,54.5,54.0,29.99,NE,53,7.0,8.0,97,0.00,,,0.00,weatherlink.com 1.10,2013-06-06 11:32:00,
2013-06-06 06:47:00,54.3,54.0,30.00,NE,53,9.0,9.0,97,0.00,,,0.00,weatherlink.com 1.10,2013-06-06 11:47:00,
2013-06-06 07:02:00,54.3,54.0,29.99,NE,49,7.0,11.0,97,0.00,,,0.00,weatherlink.com 1.10,2013-06-06 12:02:00,
2013-06-06 07:17:00,54.4,54.0,30.00,NE,49,4.0,9.0,97,0.00,,,0.00,weatherlink.com 1.10,2013-06-06 12:17:00,
2013-06-06 07:32:00,54.4,54.0,30.00,NE,49,2.0,11.0,97,0.00,,,0.00,weatherlink.com 1.10,2013-06-06 12:32:00,
2013-06-06 07:47:00,54.5,53.0,29.99,NE,49,6.0,10.0,96,0.00,,,0.00,weatherlink.com 1.10,2013-06-06 12:47:00,
2013-06-06 08:02:00,54.6,54.0,30.00,NE,49,8.0,11.0,96,0.00,,,0.00,weatherlink.com 1.10,2013-06-06 13:02:00,
2013-06-06 08:17:00,54.6,54.0,30.00,NE,49,5.0,10.0,96,0.00,,,0.00,weatherlink.com 1.10,2013-06-06 13:17:00,
2013-06-06 08:32:00,54.6,54.0,30.01,NE,49,5.0,9.0,96,0.00,,,0.00,weatherlink.com 1.10,2013-06-06 13:32:00,
2013-06-06 08:47:00,54.7,54.0,30.00,NE,49,7.0,9.0,96,0.00,,,0.00,weatherlink.com 1.10,2013-06-06 13:47:00,
2013-06-06 09:02:00,54.7,54.0,30.01,NE,49,8.0,9.0,96,0.00,,,0.00,weatherlink.com 1.10,2013-06-06 14:02:00,
2013-06-06 09:17:00,54.7,54.0,30.01,NE,49,5.0,7.0,96,0.00,,,0.00,weatherlink.com 1.10,2013-06-06 14:17:00,
2013-06-06 09:32:00,54.8,53.0,30.02,NE,49,6.0,9.0,95,0.00,,,0.00,weatherlink.com 1.10,2013-06-06 14:32:00,
2013-06-06 09:47:00,54.8,53.0,30.02,NE,49,6.0,9.0,95,0.00,,,0.00,weatherlink.com 1.10,2013-06-06 14:47:00,
2013-06-06 10:02:00,55.1,54.0,30.02,NE,49,5.0,8.0,95,0.00,,,0.00,weatherlink.com 1.10,2013-06-06 15:02:00,
2013-06-06 10:17:00,54.8,53.0,30.02,NE,49,3.0,10.0,95,0.00,,,0.00,weatherlink.com 1.10,2013-06-06 15:17:00,
2013-06-06 10:32:00,54.8,53.0,30.02,NE,49,8.0,11.0,95,0.00,,,0.00,weatherlink.com 1.10,2013-06-06 15:32:00,
2013-06-06 10:47:00,54.6,53.0,30.02,NE,49,7.0,10.0,95,0.00,,,0.00,weatherlink.com 1.10,2013-06-06 15:47:00,
2013-06-06 11:02:00,54.6,53.0,30.02,NNE,26,7.0,11.0,95,0.00,,,0.00,weatherlink.com 1.10,2013-06-06 16:02:00,
2013-06-06 11:18:00,54.6,53.0,30.02,NNE,26,10.0,10.0,95,0.00,,,0.00,weatherlink.com 1.10,2013-06-06 16:18:00,
2013-06-06 11:33:00,54.6,53.0,30.02,NNE,26,4.0,10.0,95,0.00,,,0.00,weatherlink.com 1.10,2013-06-06 16:33:00,
2013-06-06 11:48:00,55.1,54.0,30.02,NNE,26,5.0,8.0,95,0.00,,,0.00,weatherlink.com 1.10,2013-06-06 16:48:00,
2013-06-06 12:03:00,55.2,54.0,30.02,NNE,26,4.0,10.0,95,0.00,,,0.00,weatherlink.com 1.10,2013-06-06 17:03:00,
2013-06-06 12:18:00,55.5,54.0,30.02,NNE,26,8.0,8.0,95,0.00,,,0.00,weatherlink.com 1.10,2013-06-06 17:18:00,
2013-06-06 12:48:00,56.0,54.0,30.02,NNE,26,7.0,9.0,94,0.00,,,0.00,weatherlink.com 1.10,2013-06-06 17:48:00,
2013-06-06 13:03:00,56.3,54.0,30.02,NNE,26,8.0,10.0,93,0.00,,,0.00,weatherlink.com 1.10,2013-06-06 18:03:00,
2013-06-06 13:18:00,56.4,55.0,30.02,NNE,26,7.0,10.0,93,0.00,,,0.00,weatherlink.com 1.10,2013-06-06 18:18:00,
2013-06-06 13:33:00,56.5,54.0,30.02,NNE,26,8.0,9.0,92,0.00,,,0.00,weatherlink.com 1.10,2013-06-06 18:33:00,
2013-06-06 13:48:00,56.4,54.0,30.02,NNE,26,6.0,12.0,92,0.00,,,0.00,weatherlink.com 1.10,2013-06-06 18:48:00,
2013-06-06 14:03:00,56.3,54.0,30.02,NNE,26,7.0,10.0,92,0.00,,,0.00,weatherlink.com 1.10,2013-06-06 19:03:00,
2013-06-06 14:18:00,56.3,54.0,30.02,NNE,26,0.0,7.0,92,0.00,,,0.00,weatherlink.com 1.10,2013-06-06 19:18:00,
2013-06-06 14:33:00,56.2,54.0,30.02,NNE,26,2.0,9.0,92,0.00,,,0.00,weatherlink.com 1.10,2013-06-06 19:33:00,
2013-06-06 14:48:00,56.1,54.0,30.03,NNE,26,0.0,9.0,93,0.00,,,0.00,weatherlink.com 1.10,2013-06-06 19:48:00,
2013-06-06 15:03:00,56.0,54.0,30.03,NNE,26,5.0,7.0,93,0.01,,,0.01,weatherlink.com 1.10,2013-06-06 20:03:00,
2013-06-06 15:18:00,55.7,54.0,30.03,NNE,26,2.0,10.0,94,0.02,,,0.02,weatherlink.com 1.10,2013-06-06 20:18:00,
2013-06-06 15:33:00,55.6,54.0,30.03,NNE,26,0.0,8.0,95,0.03,,,0.03,weatherlink.com 1.10,2013-06-06 20:33:00,
2013-06-06 15:48:00,55.6,54.0,30.03,NNE,26,5.0,7.0,95,0.04,,,0.04,weatherlink.com 1.10,2013-06-06 20:48:00,
2013-06-06 16:03:00,55.4,54.0,30.03,NNE,26,0.0,9.0,96,0.04,,,0.05,weatherlink.com 1.10,2013-06-06 21:03:00,
2013-06-06 16:18:00,55.5,54.0,30.03,NNE,26,0.0,9.0,96,0.04,,,0.06,weatherlink.com 1.10,2013-06-06 21:18:00,
2013-06-06 16:33:00,55.6,55.0,30.03,NNE,26,9.0,9.0,96,0.04,,,0.07,weatherlink.com 1.10,2013-06-06 21:33:00,
2013-06-06 16:48:00,55.8,55.0,30.03,NNE,26,6.0,8.0,96,0.04,,,0.08,weatherlink.com 1.10,2013-06-06 21:48:00,
2013-06-06 17:03:00,55.7,55.0,30.03,NNE,26,0.0,8.0,96,0.04,,,0.09,weatherlink.com 1.10,2013-06-06 22:03:00,
2013-06-06 17:18:00,55.7,55.0,30.03,NNE,26,1.0,7.0,96,0.04,,,0.10,weatherlink.com 1.10,2013-06-06 22:18:00,
2013-06-06 17:33:00,55.7,55.0,30.03,NNE,26,4.0,7.0,96,0.04,,,0.11,weatherlink.com 1.10,2013-06-06 22:33:00,
2013-06-06 17:48:00,55.6,55.0,30.03,NNE,26,2.0,8.0,97,0.04,,,0.12,weatherlink.com 1.10,2013-06-06 22:48:00,
2013-06-06 18:03:00,55.7,55.0,30.03,NNE,26,0.0,7.0,97,0.05,,,0.14,weatherlink.com 1.10,2013-06-06 23:03:00,
2013-06-06 18:18:00,55.9,55.0,30.03,NNE,26,2.0,8.0,97,0.05,,,0.15,weatherlink.com 1.10,2013-06-06 23:18:00,
2013-06-06 18:33:00,56.0,55.0,30.03,NNE,26,4.0,8.0,97,0.05,,,0.16,weatherlink.com 1.10,2013-06-06 23:33:00,
2013-06-06 18:48:00,55.9,55.0,30.04,NNE,26,8.0,9.0,97,0.06,,,0.18,weatherlink.com 1.10,2013-06-06 23:48:00,
2013-06-06 19:03:00,55.7,55.0,30.04,NNE,26,1.0,7.0,97,0.06,,,0.20,weatherlink.com 1.10,2013-06-07 00:03:00,
2013-06-06 19:18:00,55.7,55.0,30.04,NNE,26,4.0,10.0,97,0.06,,,0.21,weatherlink.com 1.10,2013-06-07 00:18:00,
2013-06-06 19:33:00,55.8,55.0,30.04,NNE,26,6.0,9.0,97,0.05,,,0.21,weatherlink.com 1.10,2013-06-07 00:33:00,
2013-06-06 19:48:00,55.8,55.0,30.04,NNE,26,7.0,9.0,97,0.03,,,0.21,weatherlink.com 1.10,2013-06-07 00:48:00,
2013-06-06 20:03:00,55.7,55.0,30.04,NNE,26,3.0,10.0,97,0.01,,,0.21,weatherlink.com 1.10,2013-06-07 01:03:00,
2013-06-06 20:18:00,55.7,55.0,30.04,NNE,26,1.0,9.0,97,0.01,,,0.22,weatherlink.com 1.10,2013-06-07 01:18:00,
2013-06-06 20:33:00,55.7,55.0,30.04,NNE,26,5.0,9.0,97,0.01,,,0.22,weatherlink.com 1.10,2013-06-07 01:33:00,
2013-06-06 20:48:00,55.6,55.0,30.04,NNE,26,7.0,8.0,97,0.02,,,0.23,weatherlink.com 1.10,2013-06-07 01:48:00,
2013-06-06 21:03:00,55.4,55.0,30.04,NNE,26,2.0,9.0,97,0.03,,,0.24,weatherlink.com 1.10,2013-06-07 02:03:00,
2013-06-06 21:18:00,55.5,55.0,30.04,NNE,26,0.0,8.0,97,0.02,,,0.24,weatherlink.com 1.10,2013-06-07 02:18:00,
2013-06-06 21:33:00,55.5,55.0,30.05,NNE,26,0.0,8.0,97,0.03,,,0.25,weatherlink.com 1.10,2013-06-07 02:33:00,
2013-06-06 21:48:00,55.5,55.0,30.05,NNE,26,0.0,7.0,97,0.02,,,0.25,weatherlink.com 1.10,2013-06-07 02:48:00,
2013-06-06 22:03:00,55.4,55.0,30.05,NNE,26,0.0,8.0,97,0.02,,,0.26,weatherlink.com 1.10,2013-06-07 03:03:00,
2013-06-06 22:18:00,55.4,55.0,30.06,NNE,26,1.0,9.0,97,0.02,,,0.26,weatherlink.com 1.10,2013-06-07 03:18:00,
2013-06-06 22:33:00,55.3,55.0,30.06,NNE,26,6.0,8.0,97,0.02,,,0.27,weatherlink.com 1.10,2013-06-07 03:33:00,
2013-06-06 22:48:00,55.3,55.0,30.06,NNE,26,3.0,5.0,97,0.03,,,0.28,weatherlink.com 1.10,2013-06-07 03:48:00,
2013-06-06 23:03:00,55.2,54.0,30.06,NNE,26,0.0,6.0,97,0.02,,,0.28,weatherlink.com 1.10,2013-06-07 04:03:00,
2013-06-06 23:18:00,55.1,54.0,30.06,NNE,26,1.0,8.0,97,0.02,,,0.28,weatherlink.com 1.10,2013-06-07 04:18:00,
2013-06-06 23:33:00,55.0,54.0,30.06,NNE,26,1.0,6.0,97,0.01,,,0.28,weatherlink.com 1.10,2013-06-07 04:33:00,
2013-06-06 23:48:00,55.0,54.0,30.06,NNE,26,7.0,7.0,97,0.00,,,0.28,weatherlink.com 1.10,2013-06-07 04:48:00,